| time (UTC) | temp C | wind direction | speed KPH | gust KPH | rain 1hr cm | rain 24hr cm | rain mn cm | humidity % | barometer mb |
| 20260504041556 | 10 | 302 | 0.0 | 0.0 | 0.00 | 0.00 | 0.00 | 86 | 1017.8 |
| 20260504041053 | 10 | 302 | 0.0 | 0.0 | 0.00 | 0.00 | 0.00 | 86 | 1017.6 |
| 20260504040550 | 10 | 302 | 0.0 | 0.0 | 0.00 | 0.00 | 0.00 | 85 | 1017.7 |
| 20260504040047 | 10 | 302 | 0.0 | 0.0 | 0.00 | 0.00 | 0.00 | 84 | 1017.5 |
| 20260504035544 | 10 | 303 | 0.0 | 0.0 | 0.00 | 0.00 | 0.00 | 83 | 1017.5 |
| 20260504035040 | 10 | 303 | 0.0 | 0.0 | 0.00 | 0.00 | 0.00 | 83 | 1017.5 |
| 20260504034538 | 10 | 302 | 0.0 | 0.0 | 0.00 | 0.00 | 0.00 | 81 | 1017.5 |
| 20260504034035 | 10 | 303 | 0.0 | 0.0 | 0.00 | 0.00 | 0.00 | 81 | 1017.6 |
| 20260504033533 | 10 | 302 | 0.0 | 0.0 | 0.00 | 0.00 | 0.00 | 80 | 1017.5 |
| 20260504033030 | 10 | 303 | 0.0 | 0.0 | 0.00 | 0.00 | 0.00 | 80 | 1017.4 |
| 20260504032527 | 10 | 303 | 0.0 | 0.0 | 0.00 | 0.00 | 0.00 | 79 | 1017.3 |
| 20260504032024 | 10 | 302 | 0.0 | 0.0 | 0.00 | 0.00 | 0.00 | 80 | 1017.2 |
| 20260504031521 | 10 | 302 | 0.0 | 0.0 | 0.00 | 0.00 | 0.00 | 81 | 1017.3 |
| 20260504031017 | 10 | 302 | 0.0 | 0.0 | 0.00 | 0.00 | 0.00 | 81 | 1017.2 |
| 20260504030514 | 10 | 302 | 0.0 | 0.0 | 0.00 | 0.00 | 0.00 | 81 | 1017.2 |
| 20260504030010 | 10 | 302 | 0.0 | 0.0 | 0.00 | 0.00 | 0.00 | 80 | 1017.0 |
| 20260504025507 | 10 | 302 | 0.0 | 0.0 | 0.00 | 0.00 | 0.00 | 79 | 1017.2 |
| 20260504025004 | 10 | 302 | 0.0 | 0.0 | 0.00 | 0.00 | 0.00 | 79 | 1016.9 |
| 20260504024501 | 11 | 302 | 0.0 | 0.0 | 0.00 | 0.00 | 0.00 | 78 | 1017.1 |
| 20260504023959 | 11 | 302 | 0.0 | 0.0 | 0.00 | 0.00 | 0.00 | 78 | 1016.8 |
| 20260504023455 | 11 | 302 | 0.0 | 0.0 | 0.00 | 0.00 | 0.00 | 78 | 1016.9 |
| 20260504022950 | 11 | 302 | 0.0 | 0.0 | 0.00 | 0.00 | 0.00 | 78 | 1016.7 |
| 20260504022446 | 11 | 302 | 0.0 | 0.0 | 0.00 | 0.00 | 0.00 | 77 | 1017.0 |
| 20260504021943 | 11 | 302 | 0.0 | 0.0 | 0.00 | 0.00 | 0.00 | 77 | 1016.7 |
| 20260504021441 | 11 | 302 | 0.0 | 0.0 | 0.00 | 0.00 | 0.00 | 77 | 1016.9 |
| 20260504020938 | 11 | 302 | 0.0 | 0.0 | 0.00 | 0.00 | 0.00 | 76 | 1016.9 |
| 20260504020434 | 11 | 302 | 0.0 | 0.0 | 0.00 | 0.00 | 0.00 | 76 | 1016.7 |
| 20260504015931 | 12 | 302 | 0.0 | 0.0 | 0.00 | 0.00 | 0.00 | 76 | 1016.7 |
| 20260504015427 | 12 | 302 | 0.0 | 0.0 | 0.00 | 0.00 | 0.00 | 76 | 1016.7 |
| 20260504014923 | 12 | 302 | 0.0 | 0.0 | 0.00 | 0.00 | 0.00 | 76 | 1016.7 |
| 20260504014419 | 12 | 302 | 0.0 | 0.0 | 0.00 | 0.00 | 0.00 | 74 | 1016.8 |
| 20260504013916 | 12 | 302 | 0.0 | 0.0 | 0.00 | 0.00 | 0.00 | 74 | 1016.9 |
| 20260504013415 | 12 | 302 | 0.0 | 0.0 | 0.00 | 0.00 | 0.00 | 73 | 1016.6 |
| 20260504012910 | 12 | 302 | 0.0 | 0.0 | 0.00 | 0.00 | 0.00 | 72 | 1016.7 |
| 20260504012409 | 12 | 302 | 0.0 | 0.0 | 0.00 | 0.00 | 0.00 | 72 | 1016.6 |
| 20260504011905 | 13 | 302 | 0.0 | 0.0 | 0.00 | 0.00 | 0.00 | 70 | 1016.4 |
| 20260504011403 | 13 | 302 | 0.0 | 0.0 | 0.00 | 0.00 | 0.00 | 70 | 1016.2 |
| 20260504010858 | 13 | 302 | 0.0 | 0.0 | 0.00 | 0.00 | 0.00 | 69 | 1016.4 |
| 20260504010354 | 13 | 302 | 0.0 | 0.0 | 0.00 | 0.00 | 0.00 | 68 | 1016.0 |
| 20260504005851 | 13 | 302 | 0.0 | 0.0 | 0.00 | 0.00 | 0.00 | 68 | 1016.2 |
| 20260504005348 | 13 | 302 | 0.0 | 0.0 | 0.00 | 0.00 | 0.00 | 67 | 1016.1 |
| 20260504004845 | 13 | 302 | 0.0 | 0.0 | 0.00 | 0.00 | 0.00 | 65 | 1016.1 |
| 20260504004343 | 14 | 302 | 0.0 | 0.0 | 0.00 | 0.00 | 0.00 | 66 | 1016.2 |
| 20260504003839 | 14 | 302 | 0.0 | 0.0 | 0.00 | 0.00 | 0.00 | 66 | 1016.1 |
| 20260504003336 | 14 | 302 | 0.0 | 0.0 | 0.00 | 0.00 | 0.00 | 65 | 1016.2 |
| 20260504002833 | 15 | 302 | 0.0 | 0.0 | 0.00 | 0.00 | 0.00 | 64 | 1016.2 |
| 20260504002329 | 15 | 302 | 0.0 | 0.0 | 0.00 | 0.00 | 0.00 | 65 | 1016.0 |
| 20260504001827 | 15 | 302 | 0.0 | 0.0 | 0.00 | 0.00 | 0.00 | 62 | 1015.9 |
| 20260504001324 | 15 | 302 | 0.0 | 0.0 | 0.00 | 0.00 | 0.00 | 62 | 1016.1 |
| 20260504000821 | 15 | 302 | 0.0 | 0.0 | 0.00 | 0.00 | 0.00 | 62 | 1016.2 |
| 20260504000318 | 15 | 302 | 0.0 | 0.0 | 0.00 | 0.00 | 0.00 | 59 | 1016.2 |
| 20260503235816 | 16 | 302 | 0.0 | 0.0 | 0.00 | 0.00 | 0.00 | 59 | 1016.0 |
| 20260503235313 | 16 | 302 | 0.0 | 0.0 | 0.00 | 0.00 | 0.00 | 57 | 1016.2 |
| 20260503234811 | 16 | 302 | 0.0 | 0.0 | 0.00 | 0.00 | 0.00 | 56 | 1016.2 |
| 20260503234308 | 16 | 302 | 0.0 | 0.0 | 0.00 | 0.00 | 0.00 | 54 | 1016.0 |
| 20260503233806 | 16 | 302 | 0.0 | 0.0 | 0.00 | 0.00 | 0.00 | 52 | 1016.3 |
| 20260503233301 | 17 | 302 | 0.0 | 0.0 | 0.00 | 0.00 | 0.00 | 53 | 1016.1 |
| 20260503232758 | 17 | 302 | 0.0 | 0.0 | 0.00 | 0.00 | 0.00 | 52 | 1016.1 |
| 20260503232256 | 17 | 302 | 0.0 | 0.0 | 0.00 | 0.00 | 0.00 | 50 | 1016.3 |
| 20260503231754 | 17 | 297 | 0.0 | 0.0 | 0.00 | 0.00 | 0.00 | 52 | 1016.3 |
| 20260503231250 | 17 | 300 | 0.0 | 0.0 | 0.00 | 0.00 | 0.00 | 50 | 1016.3 |
| 20260503230746 | 18 | 300 | 0.0 | 0.0 | 0.00 | 0.00 | 0.00 | 49 | 1016.2 |
| 20260503230244 | 18 | 299 | 0.0 | 0.0 | 0.00 | 0.00 | 0.00 | 47 | 1016.3 |
| 20260503225741 | 18 | 303 | 0.0 | 0.0 | 0.00 | 0.00 | 0.00 | 47 | 1016.6 |
| 20260503225241 | 18 | 298 | 0.0 | 0.0 | 0.00 | 0.00 | 0.00 | 45 | 1016.4 |
| 20260503224738 | 18 | 301 | 0.0 | 0.0 | 0.00 | 0.00 | 0.00 | 45 | 1016.6 |
| 20260503224236 | 18 | 299 | 0.0 | 0.0 | 0.00 | 0.00 | 0.00 | 45 | 1016.6 |
| 20260503223733 | 18 | 298 | 0.0 | 0.0 | 0.00 | 0.00 | 0.00 | 41 | 1016.4 |
| 20260503223231 | 19 | 302 | 0.0 | 0.0 | 0.00 | 0.00 | 0.00 | 44 | 1016.4 |
| 20260503222727 | 19 | 296 | 0.0 | 0.0 | 0.00 | 0.00 | 0.00 | 42 | 1016.7 |
| 20260503222225 | 19 | 298 | 0.0 | 0.0 | 0.00 | 0.00 | 0.00 | 44 | 1016.6 |
| 20260503221723 | 19 | 296 | 0.0 | 0.0 | 0.00 | 0.00 | 0.00 | 42 | 1016.8 |
| 20260503221221 | 20 | 297 | 0.0 | 0.0 | 0.00 | 0.00 | 0.00 | 42 | 1016.6 |
| 20260503220717 | 20 | 303 | 0.0 | 0.0 | 0.00 | 0.00 | 0.00 | 43 | 1016.6 |
| 20260503220214 | 20 | 306 | 0.0 | 0.0 | 0.00 | 0.00 | 0.00 | 41 | 1016.4 |
| 20260503215705 | 19 | 297 | 0.0 | 0.0 | 0.00 | 0.00 | 0.00 | 42 | 1016.4 |
| 20260503215202 | 19 | 298 | 0.0 | 0.0 | 0.00 | 0.00 | 0.00 | 43 | 1016.6 |
| 20260503214700 | 19 | 299 | 0.0 | 0.0 | 0.00 | 0.00 | 0.00 | 43 | 1016.6 |
| 20260503214155 | 19 | 298 | 0.0 | 0.0 | 0.00 | 0.00 | 0.00 | 42 | 1016.8 |
| 20260503213649 | 19 | 304 | 0.0 | 0.0 | 0.00 | 0.00 | 0.00 | 41 | 1017.0 |
| 20260503213145 | 19 | 319 | 0.0 | 1.6 | 0.00 | 0.00 | 0.00 | 41 | 1017.1 |
| 20260503212643 | 19 | 300 | 0.0 | 0.0 | 0.00 | 0.00 | 0.00 | 42 | 1017.1 |
| 20260503212140 | 19 | 304 | 0.0 | 0.0 | 0.00 | 0.00 | 0.00 | 43 | 1017.1 |
| 20260503211638 | 19 | 297 | 0.0 | 0.0 | 0.00 | 0.00 | 0.00 | 45 | 1017.3 |
| 20260503211133 | 19 | 297 | 0.0 | 0.0 | 0.00 | 0.00 | 0.00 | 42 | 1017.2 |
| 20260503210630 | 19 | 298 | 0.0 | 0.0 | 0.00 | 0.00 | 0.00 | 39 | 1017.2 |
| 20260503210126 | 19 | 297 | 0.0 | 0.0 | 0.00 | 0.00 | 0.00 | 38 | 1017.3 |
| 20260503205622 | 19 | 315 | 0.0 | 0.0 | 0.00 | 0.00 | 0.00 | 38 | 1017.3 |
| 20260503205118 | 19 | 294 | 0.0 | 0.0 | 0.00 | 0.00 | 0.00 | 38 | 1017.5 |
| 20260503204615 | 19 | 297 | 0.0 | 0.0 | 0.00 | 0.00 | 0.00 | 41 | 1017.5 |
| 20260503204113 | 18 | 305 | 0.0 | 0.0 | 0.00 | 0.00 | 0.00 | 40 | 1017.3 |
| 20260503203610 | 18 | 293 | 0.0 | 0.0 | 0.00 | 0.00 | 0.00 | 39 | 1017.7 |
| 20260503203108 | 18 | 296 | 0.0 | 0.0 | 0.00 | 0.00 | 0.00 | 42 | 1017.8 |
| 20260503202605 | 18 | 298 | 0.0 | 0.0 | 0.00 | 0.00 | 0.00 | 40 | 1017.7 |
| 20260503202103 | 18 | 296 | 0.0 | 0.0 | 0.00 | 0.00 | 0.00 | 40 | 1017.5 |
| 20260503201601 | 18 | 297 | 0.0 | 0.0 | 0.00 | 0.00 | 0.00 | 43 | 1017.7 |
| 20260503201058 | 18 | 298 | 0.0 | 0.0 | 0.00 | 0.00 | 0.00 | 42 | 1018.1 |
| 20260503200554 | 18 | 290 | 3.2 | 3.2 | 0.00 | 0.00 | 0.00 | 41 | 1018.2 |
| 20260503200050 | 18 | 299 | 0.0 | 0.0 | 0.00 | 0.00 | 0.00 | 43 | 1018.2 |
| 20260503195547 | 18 | 339 | 1.6 | 1.6 | 0.00 | 0.00 | 0.00 | 42 | 1018.5 |
| 20260503195044 | 18 | 299 | 0.0 | 0.0 | 0.00 | 0.00 | 0.00 | 46 | 1018.5 |
| 20260503194541 | 18 | 338 | 0.0 | 1.6 | 0.00 | 0.00 | 0.00 | 44 | 1018.4 |
| 20260503194041 | 18 | 295 | 0.0 | 0.0 | 0.00 | 0.00 | 0.00 | 44 | 1018.7 |
| 20260503193538 | 18 | 4 | 1.6 | 4.8 | 0.00 | 0.00 | 0.00 | 43 | 1018.9 |
| 20260503193034 | 18 | 299 | 0.0 | 0.0 | 0.00 | 0.00 | 0.00 | 44 | 1018.9 |
| 20260503192530 | 18 | 324 | 0.0 | 0.0 | 0.00 | 0.00 | 0.00 | 47 | 1018.9 |
| 20260503192026 | 18 | 299 | 0.0 | 0.0 | 0.00 | 0.00 | 0.00 | 44 | 1019.3 |
| 20260503191523 | 17 | 274 | 0.0 | 0.0 | 0.00 | 0.00 | 0.00 | 43 | 1019.2 |
| 20260503191020 | 18 | 26 | 1.6 | 3.2 | 0.00 | 0.00 | 0.00 | 44 | 1019.2 |
| 20260503190517 | 18 | 299 | 0.0 | 0.0 | 0.00 | 0.00 | 0.00 | 46 | 1019.2 |
| 20260503190014 | 17 | 297 | 0.0 | 0.0 | 0.00 | 0.00 | 0.00 | 44 | 1019.2 |
| 20260503185510 | 17 | 296 | 0.0 | 0.0 | 0.00 | 0.00 | 0.00 | 43 | 1019.3 |
| 20260503185010 | 18 | 298 | 0.0 | 0.0 | 0.00 | 0.00 | 0.00 | 45 | 1019.4 |
| 20260503184506 | 18 | 296 | 0.0 | 0.0 | 0.00 | 0.00 | 0.00 | 44 | 1019.3 |
| 20260503184003 | 18 | 300 | 0.0 | 0.0 | 0.00 | 0.00 | 0.00 | 45 | 1019.5 |
| 20260503183459 | 17 | 298 | 0.0 | 0.0 | 0.00 | 0.00 | 0.00 | 46 | 1019.4 |
| 20260503182956 | 18 | 305 | 0.0 | 0.0 | 0.00 | 0.00 | 0.00 | 43 | 1019.5 |
| 20260503182455 | 18 | 297 | 0.0 | 0.0 | 0.00 | 0.00 | 0.00 | 44 | 1019.7 |
| 20260503181952 | 18 | 303 | 0.0 | 0.0 | 0.00 | 0.00 | 0.00 | 44 | 1019.8 |
| 20260503181449 | 18 | 307 | 0.0 | 0.0 | 0.00 | 0.00 | 0.00 | 42 | 1019.6 |
| 20260503180945 | 18 | 300 | 0.0 | 0.0 | 0.00 | 0.00 | 0.00 | 43 | 1019.8 |
| 20260503180444 | 18 | 302 | 0.0 | 0.0 | 0.00 | 0.00 | 0.00 | 41 | 1019.6 |
| 20260503175940 | 17 | 312 | 0.0 | 0.0 | 0.00 | 0.00 | 0.00 | 42 | 1020.0 |
| 20260503175438 | 17 | 312 | 0.0 | 0.0 | 0.00 | 0.00 | 0.00 | 41 | 1020.1 |
| 20260503174933 | 17 | 341 | 0.0 | 0.0 | 0.00 | 0.00 | 0.00 | 44 | 1020.3 |
| 20260503174432 | 17 | 303 | 0.0 | 0.0 | 0.00 | 0.00 | 0.00 | 39 | 1020.3 |
| 20260503173932 | 17 | 300 | 0.0 | 0.0 | 0.00 | 0.00 | 0.00 | 44 | 1020.3 |
| 20260503173428 | 17 | 302 | 0.0 | 0.0 | 0.00 | 0.00 | 0.00 | 40 | 1020.5 |
| 20260503172925 | 17 | 301 | 0.0 | 0.0 | 0.00 | 0.00 | 0.00 | 41 | 1020.7 |
| 20260503172422 | 17 | 313 | 0.0 | 0.0 | 0.00 | 0.00 | 0.00 | 46 | 1020.5 |
| 20260503171918 | 17 | 300 | 0.0 | 0.0 | 0.00 | 0.00 | 0.00 | 44 | 1020.6 |
| 20260503171415 | 17 | 302 | 0.0 | 0.0 | 0.00 | 0.00 | 0.00 | 47 | 1020.3 |
| 20260503170913 | 17 | 299 | 0.0 | 0.0 | 0.00 | 0.00 | 0.00 | 47 | 1020.7 |
| 20260503170409 | 16 | 301 | 0.0 | 0.0 | 0.00 | 0.00 | 0.00 | 47 | 1020.8 |
| 20260503150801 | 15 | 314 | 0.0 | 0.0 | 0.00 | 0.00 | 0.00 | 52 | 1022.1 |
| 20260503150257 | 15 | 318 | 0.0 | 0.0 | 0.00 | 0.00 | 0.00 | 48 | 1021.9 |
| 20260503140222 | 12 | 306 | 0.0 | 0.0 | 0.00 | 0.00 | 0.00 | 68 | 1021.7 |
| 20260503131151 | 10 | 306 | 0.0 | 0.0 | 0.00 | 0.00 | 0.00 | 79 | 1021.7 |
| 20260503130649 | 10 | 304 | 0.0 | 0.0 | 0.00 | 0.00 | 0.00 | 81 | 1021.8 |
| 20260503130146 | 10 | 307 | 0.0 | 0.0 | 0.00 | 0.00 | 0.00 | 83 | 1021.4 |
| 20260503120106 | 8 | 309 | 0.0 | 0.0 | 0.00 | 0.00 | 0.00 | 89 | 1021.6 |
| 20260503110534 | 4 | 303 | 0.0 | 0.0 | 0.00 | 0.00 | 0.00 | 99 | 1021.0 |
| 20260503090420 | 5 | 303 | 0.0 | 0.0 | 0.00 | 0.00 | 0.00 | 98 | 1019.6 |
| 20260503081346 | 5 | 303 | 0.0 | 0.0 | 0.00 | 0.00 | 0.00 | 97 | 1019.1 |
| 20260503080843 | 5 | 303 | 0.0 | 0.0 | 0.00 | 0.00 | 0.00 | 97 | 1019.0 |
| 20260503080340 | 5 | 303 | 0.0 | 0.0 | 0.00 | 0.00 | 0.00 | 97 | 1019.0 |
| 20260503072817 | 6 | 303 | 0.0 | 0.0 | 0.00 | 0.00 | 0.00 | 96 | 1018.8 |
| 20260503072314 | 6 | 304 | 0.0 | 0.0 | 0.00 | 0.00 | 0.00 | 96 | 1018.7 |
| 20260503071810 | 6 | 304 | 0.0 | 0.0 | 0.00 | 0.00 | 0.00 | 96 | 1018.8 |
| 20260503071307 | 6 | 304 | 0.0 | 0.0 | 0.00 | 0.00 | 0.00 | 96 | 1018.7 |
| 20260503070803 | 6 | 303 | 0.0 | 0.0 | 0.00 | 0.00 | 0.00 | 95 | 1018.5 |
| 20260503070301 | 6 | 303 | 0.0 | 0.0 | 0.00 | 0.00 | 0.00 | 95 | 1018.5 |
| 20260503060226 | 7 | 304 | 0.0 | 0.0 | 0.00 | 0.00 | 0.00 | 89 | 1018.6 |
| 20260503054713 | 7 | 303 | 0.0 | 0.0 | 0.00 | 0.00 | 0.00 | 87 | 1018.5 |
| 20260503054211 | 8 | 303 | 0.0 | 0.0 | 0.00 | 0.00 | 0.00 | 87 | 1018.5 |
| 20260503053709 | 8 | 302 | 0.0 | 0.0 | 0.00 | 0.00 | 0.00 | 87 | 1018.4 |
| 20260503053207 | 8 | 302 | 0.0 | 0.0 | 0.00 | 0.00 | 0.00 | 86 | 1018.2 |
| 20260503052703 | 8 | 302 | 0.0 | 0.0 | 0.00 | 0.00 | 0.00 | 85 | 1018.4 |
| 20260503052159 | 8 | 302 | 0.0 | 0.0 | 0.00 | 0.00 | 0.00 | 85 | 1018.6 |
| 20260503051654 | 8 | 302 | 0.0 | 0.0 | 0.00 | 0.00 | 0.00 | 85 | 1018.2 |
| 20260503051153 | 8 | 302 | 0.0 | 0.0 | 0.00 | 0.00 | 0.00 | 85 | 1018.2 |
| 20260503050649 | 8 | 303 | 0.0 | 0.0 | 0.00 | 0.00 | 0.00 | 84 | 1018.2 |
| 20260503050145 | 8 | 303 | 0.0 | 0.0 | 0.00 | 0.00 | 0.00 | 84 | 1018.0 |
| 20260503045643 | 8 | 303 | 0.0 | 0.0 | 0.00 | 0.00 | 0.00 | 83 | 1017.9 |
| 20260503045140 | 8 | 303 | 0.0 | 0.0 | 0.00 | 0.00 | 0.00 | 83 | 1018.2 |
| 20260503044637 | 8 | 303 | 0.0 | 0.0 | 0.00 | 0.00 | 0.00 | 82 | 1017.9 |
| 20260503044134 | 9 | 303 | 0.0 | 0.0 | 0.00 | 0.00 | 0.00 | 81 | 1018.0 |
| 20260503043631 | 9 | 303 | 0.0 | 0.0 | 0.00 | 0.00 | 0.00 | 80 | 1017.7 |
| 20260503043128 | 9 | 303 | 0.0 | 0.0 | 0.00 | 0.00 | 0.00 | 80 | 1018.0 |
| 20260503042624 | 9 | 302 | 0.0 | 0.0 | 0.00 | 0.00 | 0.00 | 80 | 1017.6 |
| 20260503042120 | 9 | 302 | 0.0 | 0.0 | 0.00 | 0.00 | 0.00 | 79 | 1017.8 |